WMT7675 LROP-ENTO

Flight info

Callsign WMT7675
Flight time 2h 46m
Altitude 36000
Route BUKEL DCT PELUR DCT EDETA DCT IXUBA DCT KENIN DCT LENOV DCT LUSID DCT SABAK L617 REPKU
Aircraft A321/M-SDE1E2E3FGIJ1J4RWXY/LB1

Departure

Time 2026-04-30 14:56
Airport Bucharest Henri Coandă International Airport (LROP)

Arrival

Time 2026-04-30 17:42
Airport Sandefjord Airport, Torp (ENTO)
Time Latitude Longitude Altitude Speed Heading
2026-04-30 14:22 44.57020 26.08026 322 ft 0 kts 354°
2026-04-30 14:38 44.57019 26.08026 322 ft 1 kts 354°
2026-04-30 14:39 44.56996 26.08029 321 ft 4 kts 354°
2026-04-30 14:39 44.56969 26.08032 321 ft 3 kts 354°
2026-04-30 14:39 44.56948 26.08034 321 ft 4 kts 15°
2026-04-30 14:40 44.56925 26.07981 321 ft 4 kts 84°
2026-04-30 14:40 44.56922 26.07944 321 ft 4 kts 84°
2026-04-30 14:40 44.56922 26.07936 321 ft 0 kts 84°
2026-04-30 14:50 44.56922 26.07937 321 ft 1 kts 84°
2026-04-30 14:51 44.56927 26.08004 320 ft 6 kts 84°
2026-04-30 14:51 44.56932 26.08078 322 ft 9 kts 84°
2026-04-30 14:51 44.56944 26.08230 323 ft 6 kts 84°
2026-04-30 14:52 44.56948 26.08291 323 ft 6 kts 84°
2026-04-30 14:52 44.56905 26.08421 323 ft 9 kts 131°
2026-04-30 14:52 44.56896 26.08500 322 ft 8 kts 81°
2026-04-30 14:53 44.56985 26.08541 322 ft 9 kts 353°
2026-04-30 14:53 44.57054 26.08531 322 ft 12 kts 354°
2026-04-30 14:54 44.57256 26.08502 321 ft 18 kts 354°
2026-04-30 14:54 44.57487 26.08468 323 ft 15 kts 354°
2026-04-30 14:55 44.57657 26.08482 321 ft 10 kts 49°
2026-04-30 14:55 44.57671 26.08559 324 ft 4 kts 84°
2026-04-30 14:55 44.57694 26.08855 322 ft 67 kts 84°
2026-04-30 14:56 44.57892 26.11324 457 ft 170 kts 79°
2026-04-30 14:56 44.58163 26.14551 2002 ft 166 kts 80°
2026-04-30 14:57 44.58277 26.16190 2522 ft 173 kts 80°
2026-04-30 14:57 44.59155 26.19198 3644 ft 185 kts 33°
2026-04-30 14:58 44.62021 26.18631 4090 ft 254 kts 332°
2026-04-30 14:58 44.63495 26.17161 4807 ft 264 kts 327°
2026-04-30 14:58 44.66383 26.13961 6602 ft 265 kts 325°
2026-04-30 14:59 44.69326 26.10728 8150 ft 272 kts 326°
2026-04-30 15:00 44.73984 26.05816 10372 ft 286 kts 325°
2026-04-30 15:00 44.77337 26.02303 11069 ft 321 kts 324°
2026-04-30 15:01 44.81039 25.98445 12174 ft 337 kts 323°
2026-04-30 15:01 44.82292 25.97134 12665 ft 338 kts 323°
2026-04-30 15:01 44.86714 25.92448 14424 ft 342 kts 322°
2026-04-30 15:02 44.88622 25.90429 15043 ft 345 kts 322°
2026-04-30 15:02 44.90549 25.88394 15697 ft 347 kts 321°
2026-04-30 15:03 44.96492 25.82141 17447 ft 363 kts 321°
2026-04-30 15:03 45.00580 25.77820 18616 ft 372 kts 320°
2026-04-30 15:04 45.04759 25.73408 19717 ft 378 kts 319°
2026-04-30 15:04 45.11128 25.66655 21464 ft 385 kts 317°
2026-04-30 15:05 45.17582 25.59759 23258 ft 390 kts 316°
2026-04-30 15:06 45.21937 25.55101 24275 ft 394 kts 315°
2026-04-30 15:06 45.26338 25.50403 25157 ft 398 kts 315°
2026-04-30 15:07 45.30779 25.45647 26062 ft 402 kts 317°
2026-04-30 15:07 45.35230 25.40859 26856 ft 407 kts 317°
2026-04-30 15:08 45.39772 25.35962 27641 ft 412 kts 317°
2026-04-30 15:08 45.46677 25.28497 28748 ft 419 kts 317°
2026-04-30 15:09 45.51350 25.23439 29458 ft 425 kts 319°
2026-04-30 15:09 45.56086 25.18305 30101 ft 430 kts 319°
2026-04-30 15:10 45.60870 25.13109 30709 ft 435 kts 319°
2026-04-30 15:11 45.70604 25.02497 31933 ft 441 kts 321°
2026-04-30 15:11 45.75467 24.97178 32762 ft 439 kts 321°
2026-04-30 15:12 45.82723 24.89210 33932 ft 436 kts 320°
2026-04-30 15:13 45.87527 24.83916 34605 ft 435 kts 320°
2026-04-30 15:14 45.97121 24.73335 35713 ft 435 kts 321°
2026-04-30 15:14 46.03495 24.66265 36259 ft 434 kts 321°
2026-04-30 15:17 46.24962 24.42305 36273 ft 434 kts 321°
2026-04-30 15:19 46.44031 24.20824 36289 ft 436 kts 321°
2026-04-30 17:39 59.30077 10.25604 2372 ft 198 kts 183°
2026-04-30 17:41 59.21622 10.25796 720 ft 136 kts 180°
2026-04-30 17:42 59.19741 10.25832 304 ft 135 kts 179°
2026-04-30 17:42 59.18070 10.25875 277 ft 33 kts 179°
2026-04-30 17:43 59.17794 10.25882 279 ft 12 kts 179°
2026-04-30 17:44 59.17685 10.25773 278 ft 9 kts 324°
2026-04-30 17:44 59.17859 10.25548 278 ft 7 kts 334°
2026-04-30 17:46 59.17960 10.25423 278 ft 0 kts 270°
2026-04-30 18:15 59.17960 10.25427 278 ft 2 kts 270°
2026-04-30 18:16 59.17944 10.25519 284 ft 4 kts 326°
2026-04-30 18:16 59.17897 10.25537 278 ft 1 kts 360°
2026-04-30 18:20 59.17905 10.25537 279 ft 2 kts 360°
2026-04-30 18:20 59.17926 10.25537 278 ft 4 kts 360°
2026-04-30 18:20 59.17962 10.25536 283 ft 6 kts 360°
2026-04-30 18:21 59.18012 10.25536 278 ft 8 kts 360°
2026-04-30 18:21 59.18073 10.25536 278 ft 10 kts
2026-04-30 18:21 59.18132 10.25604 278 ft 11 kts 47°
2026-04-30 18:21 59.18188 10.25721 278 ft 13 kts 47°
2026-04-30 18:22 59.18252 10.25858 277 ft 15 kts 50°
2026-04-30 18:22 59.18277 10.26168 278 ft 7 kts 89°
2026-04-30 18:22 59.18303 10.26241 278 ft 8 kts 21°
2026-04-30 18:23 59.18361 10.26245 278 ft 9 kts 359°
2026-04-30 18:23 59.18434 10.26243 278 ft 12 kts 359°
2026-04-30 18:23 59.18524 10.26241 278 ft 14 kts 359°
2026-04-30 18:23 59.18630 10.26238 278 ft 16 kts 359°
2026-04-30 18:24 59.18899 10.26233 278 ft 22 kts 359°
2026-04-30 18:24 59.19062 10.26229 278 ft 25 kts 359°
2026-04-30 18:24 59.19246 10.26224 278 ft 28 kts 359°
2026-04-30 18:25 59.19448 10.26220 278 ft 30 kts 359°
2026-04-30 18:25 59.19684 10.26215 278 ft 10 kts 359°
2026-04-30 18:25 59.19754 10.26179 278 ft 11 kts 321°
2026-04-30 18:26 59.19847 10.25960 278 ft 14 kts 309°
2026-04-30 18:26 59.19858 10.25857 278 ft 3 kts 238°
2026-04-30 18:26 59.19835 10.25836 279 ft 5 kts 191°
2026-04-30 18:27 59.19676 10.25838 280 ft 45 kts 179°
2026-04-30 18:27 59.19100 10.25851 278 ft 118 kts 179°
2026-04-30 18:28 59.16909 10.25862 937 ft 174 kts 181°
2026-04-30 18:28 59.15688 10.25879 1653 ft 177 kts 182°
2026-04-30 18:28 59.12914 10.25946 2177 ft 224 kts 182°
2026-04-30 18:29 59.11325 10.25993 2835 ft 229 kts 183°
2026-04-30 18:29 59.07756 10.31294 4811 ft 269 kts 93°
2026-04-30 18:30 59.08343 10.38745 6192 ft 285 kts 74°
2026-04-30 18:30 59.09298 10.46335 7837 ft 292 kts 77°
2026-04-30 18:31 59.09529 10.50273 8637 ft 296 kts 94°
2026-04-30 18:31 59.07773 10.57355 10234 ft 299 kts 140°